[[{"header":{"parameterUnit":"m.s-1","parameterCategory":1,"la1":30.2991,"la2":30.254,"lo1":-89.0895,"lo2":-89.0444,"dy":0.0017,"dx":0.0017,"nx":28,"ny":28,"refTime":"2023-10-28T21:00:00:Z","depth":0,"parameterNumber":2,"parameterNumberName":"U-component_of_WINDS"},"data":[0,0,0,0,0,0,0,0,0,0,0,0,0,0,0,0,0,0,0,0,0,0,0,0,0,0,0,0,0,0,0,0,0,0,0,0,0,0,0,0,0,0,0,0,0,0,0,0,0,0,0,0,0,0,0,0,0,0,-2.1131,-2.1131,0,-2.1142,-2.1142,-2.1143,-2.1077,-2.1076,-2.1074,-2.1072,-2.1084,-2.1086,-2.1088,0,0,0,0,0,0,0,0,0,0,0,0,0,-2.1054,-2.1055,-2.1131,-2.1131,-2.1131,-2.1142,-2.1142,-2.1143,-2.1078,-2.1076,-2.1073,-2.1071,-2.1084,-2.1086,-2.1089,0,0,0,0,0,0,0,0,0,0,0,0,0,-2.1079,-2.1056,-2.1131,-2.11,-2.1097,-2.1142,-2.1142,-2.1143,-2.1078,-2.1075,-2.1073,-2.107,-2.1083,-2.1086,-2.1089,-2.1164,0,0,-2.1098,-2.11,0,0,0,0,0,0,0,0,-2.1077,-2.1081,-2.1104,-2.1102,-2.1099,-2.1106,-2.112,-2.115,-2.1079,-2.1086,-2.1072,-2.1069,-2.1094,-2.1096,-2.1104,-2.1164,-2.1165,-2.1099,-2.11,-2.1102,-2.1103,0,0,0,0,0,0,0,-2.1076,-2.1081,-2.1135,-2.1105,-2.1102,-2.1086,-2.1087,-2.1125,-2.1105,-2.1085,-2.108,-2.1082,-2.1092,-2.1101,-2.1104,-2.1165,-2.1098,-2.1101,-2.1103,-2.1104,-2.1289,-2.1292,0,0,0,0,0,0,-2.1078,-2.108,-2.1135,-2.1136,-2.1081,-2.109,-2.109,-2.1106,-2.1104,-2.1102,-2.1085,-2.1079,-2.1097,-2.11,-2.1104,-2.1192,-2.1102,-2.1105,-2.1106,-2.1286,-2.129,-2.1293,0,0,0,0,0,0,-2.1076,-2.1083,-2.1134,-2.1106,-2.1112,-2.1094,-2.1113,-2.1108,-2.1117,-2.1104,-2.1101,-2.1098,-2.1095,-2.11,-2.115,-2.1191,-2.1106,-2.1109,-2.1283,-2.1287,-2.1292,-2.1368,0,0,0,0,0,0,-2.1074,-2.1083,-2.1111,-2.1107,-2.1113,-2.1179,-2.1115,-2.111,-2.1123,-2.1116,-2.1116,-2.1113,-2.1093,-2.1145,-2.1153,-2.1194,-2.1111,-2.1279,-2.1285,-2.129,-2.1362,-2.1375,-2.1386,0,0,0,0,0,-2.1072,-2.1132,-2.1113,-2.112,-2.1148,-2.1182,-2.1185,-2.1161,-2.1126,-2.1154,-2.1147,-2.1113,-2.1186,-2.1151,-2.1159,-2.1202,-2.1276,-2.1283,-2.129,-2.1356,-2.1372,-2.1386,0,0,0,0,0,0,-2.114,-2.1131,-2.1109,-2.117,-2.1177,-2.1171,-2.1205,-2.1179,-2.1196,-2.1189,-2.1158,-2.1159,-2.1214,-2.1213,-2.1174,-2.1275,-2.1225,-2.1234,-2.1273,-2.1288,-2.13,-2.1298,-2.1114,0,0,0,0,0,-2.1162,-2.1191,-2.1181,-2.1235,-2.124,-2.1223,-2.1237,-2.1218,-2.1224,-2.1227,-2.1222,-2.123,-2.1255,-2.1272,-2.1294,-2.1362,-2.1362,-2.1396,-2.1408,-2.1418,-2.1425,-2.1462,-2.1477,-2.1316,-2.1316,-2.1316,0,0,-2.1208,-2.1206,-2.1226,-2.1249,-2.1252,-2.1283,-2.1225,-2.126,-2.1282,-2.1232,-2.1279,-2.1277,-2.1284,-2.1343,-2.1369,-2.1344,-2.147,-2.1427,-2.1435,-2.1436,-2.1471,-2.1486,-2.15,-2.132,-2.132,-2.1319,0,0,-2.1306,-2.1308,-2.1354,-2.1359,-2.1366,-2.1354,-2.1365,-2.1364,-2.136,-2.1407,-2.137,-2.1397,-2.144,-2.1447,-2.1456,-2.1561,-2.1531,-2.1569,-2.1631,-2.1667,-2.168,-2.1691,-2.1728,-2.1742,-2.1577,-2.1577,-2.1577,0,-2.1362,-2.1406,-2.1381,-2.1418,-2.1429,-2.1387,-2.1433,-2.144,-2.1453,-2.1462,-2.1434,-2.1489,-2.149,-2.1551,-2.1577,-2.1586,-2.1598,-2.1567,-2.168,-2.1691,-2.1701,-2.1736,-2.175,-2.1581,-2.1581,-2.158,-2.158,0,-2.1474,-2.1506,-2.1542,-2.1556,-2.1573,-2.1614,-2.1596,-2.1616,-2.1597,-2.1588,-2.1637,-2.1638,-2.166,-2.1674,-2.1655,-2.1733,-2.1717,-2.1685,-2.1634,-2.1721,-2.1754,-2.1767,-2.1588,-2.1586,-2.1585,-2.1584,0,0,-2.1612,-2.1615,-2.1628,-2.1635,-2.164,-2.1664,-2.1706,-2.1727,-2.1744,-2.1757,-2.179,-2.1829,-2.18,-2.1811,-2.1793,-2.1825,-2.1908,-2.1789,-2.1789,-2.181,-2.1994,-2.2017,-2.2032,-2.1889,-2.1892,-2.1894,-2.1993,0,-2.1708,-2.1777,-2.1757,-2.1826,-2.1855,-2.1817,-2.1853,-2.186,-2.1855,-2.1879,-2.1873,-2.1901,-2.1861,-2.1867,-2.1897,-2.1891,-2.1944,-2.1884,-2.192,-2.1921,-2.1917,-2.2049,-2.2073,-2.2167,-2.2006,-2.2008,-2.2009,0,-2.1828,-2.1845,-2.1918,-2.192,-2.1931,-2.1963,-2.1983,-2.2007,-2.2016,-2.2009,-2.2023,-2.1999,-2.204,-2.1991,-2.2047,-2.2007,-2.2021,-2.2021,-2.2024,-2.2025,-2.1969,-2.2053,-2.2196,-2.221,-2.2029,-2.2027,-2.2026,0,-2.1921,-2.1962,-2.2011,-2.2018,-2.2022,-2.2046,-2.2049,-2.2055,-2.207,-2.2087,-2.2097,-2.2119,-2.2131,-2.2149,-2.2133,-2.2098,-2.2192,-2.2141,-2.2188,-2.2188,-2.2207,-2.2206,-2.2353,-2.2219,-2.2219,-2.2219,-2.2218,0,-2.2028,-2.2074,-2.2053,-2.2083,-2.2133,-2.2111,-2.2162,-2.216,-2.2167,-2.2196,-2.2165,-2.2194,-2.2171,-2.2198,-2.2186,-2.2234,-2.224,-2.2236,-2.2232,-2.2238,-2.2238,-2.2245,-2.2238,-2.2222,-2.2221,-2.2221,-2.222,0,-2.2139,-2.2127,-2.2177,-2.2178,-2.2179,-2.2217,-2.2217,-2.2245,-2.2239,-2.2277,-2.2284,-2.2274,-2.2304,-2.229,-2.2322,-2.2313,-2.2376,-2.2364,-2.2373,-2.2369,-2.2416,-2.2411,-2.2572,-2.2591,-2.2446,-2.2447,-2.2449,0,-2.2207,-2.2242,-2.2247,-2.2264,-2.227,-2.2299,-2.2314,-2.2295,-2.2312,-2.2326,-2.2353,-2.2381,-2.2402,-2.2452,-2.2448,-2.2472,-2.2459,-2.2514,-2.2463,-2.2468,-2.2459,-2.2457,-2.246,-2.2524,-2.2525,-2.2527,-2.2528,0,-2.233,-2.2323,-2.2346,-2.2369,-2.2389,-2.2405,-2.2419,-2.2436,-2.2417,-2.2439,-2.247,-2.2486,-2.2519,-2.2547,-2.2569,-2.2573,-2.2548,-2.2545,-2.2557,-2.2562,-2.2565,-2.2563,-2.2399,-2.254,-2.2539,-2.2538,-2.2538,-2.2537,-2.2421,-2.245,-2.2458,-2.2486,-2.2495,-2.251,-2.2536,-2.2534,-2.2559,-2.2584,-2.2572,-2.2608,-2.2618,-2.2645,-2.2653,-2.2681,-2.266,-2.2677,-2.2681,-2.2685,-2.2691,-2.2563,-2.2685,-2.2685,-2.2685,-2.2684,-2.2684,0,-2.2541,-2.2545,-2.2571,-2.2592,-2.2615,-2.2591,-2.2606,-2.2626,-2.2658,-2.267,-2.2692,-2.2728,-2.2756,-2.2755,-2.2781,-2.2804,-2.2793,-2.2811,-2.2808,-2.2809,-2.2709,-2.2696,-2.2819,-2.2819,-2.2819,-2.2819,-2.2819,-2.2819,-2.2606,-2.2654,-2.2649,-2.2702,-2.2706,-2.2741,-2.2751,-2.2765,-2.2774,-2.2816,-2.2839,-2.2839,-2.2846,-2.2873,-2.2897,-2.2896,-2.2907,-2.2929,-2.2924,-2.283,-2.2816,-2.2804,-2.2791,-2.2932,-2.2932,-2.3022,-2.3022,-2.3023]},{"header":{"parameterUnit":"m.s-1","parameterCategory":1,"la1":30.2991,"la2":30.254,"lo1":-89.0895,"lo2":-89.0444,"dy":0.0017,"dx":0.0017,"nx":28,"ny":28,"refTime":"2023-10-28T21:00:00:Z","depth":0,"parameterNumber":3,"parameterNumberName":"V-component_of_WINDS"},"data":[0,0,0,0,0,0,0,0,0,0,0,0,0,0,0,0,0,0,0,0,0,0,0,0,0,0,0,0,0,0,0,0,0,0,0,0,0,0,0,0,0,0,0,0,0,0,0,0,0,0,0,0,0,0,0,0,0,0,0.5948,0.5948,0,0.5979,0.5979,0.598,0.6048,0.6049,0.6051,0.6052,0.608,0.608,0.6079,0,0,0,0,0,0,0,0,0,0,0,0,0,0.5944,0.5944,0.5948,0.5948,0.5948,0.5979,0.5979,0.598,0.6048,0.6049,0.6051,0.6053,0.608,0.608,0.6079,0,0,0,0,0,0,0,0,0,0,0,0,0,0.5957,0.5944,0.5948,0.5986,0.599,0.5979,0.5979,0.598,0.6047,0.6049,0.6051,0.6053,0.6081,0.608,0.6079,0.6032,0,0,0.6076,0.6076,0,0,0,0,0,0,0,0,0.5957,0.5958,0.598,0.5983,0.5988,0.6012,0.5989,0.5997,0.6047,0.6025,0.6052,0.6054,0.6055,0.6057,0.6058,0.6033,0.6034,0.6076,0.6076,0.6075,0.6075,0,0,0,0,0,0,0,0.5956,0.5957,0.596,0.598,0.5985,0.6001,0.6005,0.599,0.6028,0.6027,0.6032,0.6035,0.6058,0.6059,0.6059,0.6035,0.6076,0.6076,0.6075,0.6075,0.5973,0.5971,0,0,0,0,0,0,0.595,0.5955,0.5959,0.5961,0.5977,0.5999,0.6004,0.6002,0.6028,0.6035,0.6034,0.6038,0.6059,0.606,0.606,0.6007,0.6075,0.6075,0.6074,0.5976,0.5973,0.5971,0,0,0,0,0,0,0.5949,0.5949,0.5958,0.596,0.5962,0.5997,0.5994,0.6001,0.6002,0.6033,0.604,0.6027,0.6061,0.6061,0.6039,0.6009,0.6074,0.6074,0.5978,0.5975,0.5972,0.59,0,0,0,0,0,0,0.5949,0.5949,0.5932,0.5959,0.5962,0.5936,0.5992,0.6,0.6001,0.6008,0.6029,0.6035,0.6062,0.604,0.6038,0.6009,0.6073,0.5981,0.5977,0.5973,0.5905,0.5894,0.5885,0,0,0,0,0,0.5949,0.5909,0.593,0.593,0.5941,0.5934,0.5936,0.5969,0.5998,0.5981,0.6001,0.6034,0.6013,0.6037,0.6035,0.6006,0.5983,0.5978,0.5973,0.5909,0.5896,0.5886,0,0,0,0,0,0,0.5876,0.5913,0.5937,0.5906,0.5917,0.5946,0.5925,0.5955,0.5956,0.5962,0.6003,0.6007,0.5979,0.599,0.6016,0.5962,0.6003,0.5998,0.5955,0.5943,0.5934,0.5931,0.6072,0,0,0,0,0,0.5857,0.5849,0.5882,0.5851,0.5855,0.5889,0.5887,0.5913,0.5925,0.5929,0.5948,0.5957,0.5953,0.5949,0.5947,0.5908,0.5913,0.5886,0.5877,0.5869,0.5863,0.5843,0.5831,0.5954,0.5954,0.5954,0,0,0.5816,0.5836,0.5828,0.5837,0.5848,0.5838,0.5892,0.588,0.5873,0.5927,0.5907,0.5921,0.5934,0.5903,0.589,0.5912,0.583,0.5862,0.5855,0.5854,0.5837,0.5825,0.5815,0.5951,0.5952,0.5952,0,0,0.5737,0.5751,0.5727,0.5738,0.5755,0.5778,0.5772,0.5797,0.5809,0.579,0.5831,0.5823,0.5814,0.5822,0.5825,0.5751,0.5781,0.5749,0.5697,0.5677,0.5667,0.5659,0.5632,0.5622,0.5743,0.5743,0.5743,0,0.5684,0.5672,0.5711,0.5696,0.5698,0.5749,0.5724,0.5733,0.5747,0.5747,0.5772,0.5763,0.5775,0.5747,0.5729,0.573,0.5724,0.5746,0.5666,0.5658,0.5651,0.5625,0.5615,0.5739,0.574,0.574,0.574,0,0.5605,0.5597,0.5575,0.559,0.559,0.557,0.5605,0.5601,0.5626,0.5646,0.5626,0.5644,0.5646,0.5641,0.5665,0.5616,0.5629,0.5659,0.5701,0.5634,0.5611,0.5601,0.5733,0.5735,0.5736,0.5737,0,0,0.548,0.5518,0.5509,0.5516,0.5539,0.5533,0.5515,0.5519,0.5514,0.5523,0.5509,0.5501,0.553,0.5533,0.5559,0.5541,0.5481,0.5574,0.5575,0.5555,0.5427,0.5403,0.5391,0.5502,0.55,0.5499,0.5426,0,0.5405,0.5379,0.5414,0.5379,0.5371,0.542,0.5404,0.5416,0.5435,0.5431,0.5451,0.5445,0.5483,0.5486,0.5471,0.5491,0.5455,0.5497,0.5488,0.5487,0.5481,0.5379,0.5354,0.5284,0.5417,0.5415,0.5414,0,0.5314,0.532,0.5285,0.5311,0.5309,0.5295,0.5301,0.5297,0.5311,0.5326,0.5331,0.5362,0.5346,0.5388,0.5367,0.5394,0.5393,0.5402,0.54,0.5399,0.5445,0.5375,0.5263,0.5252,0.54,0.5401,0.5402,0,0.5225,0.5225,0.5204,0.5208,0.5239,0.5227,0.5239,0.5256,0.5256,0.5262,0.5262,0.5265,0.5266,0.5268,0.5299,0.5327,0.5273,0.5318,0.5284,0.5283,0.5269,0.5269,0.5154,0.5269,0.527,0.527,0.527,0,0.5138,0.5114,0.5164,0.5151,0.5126,0.5166,0.514,0.5157,0.5172,0.5162,0.5204,0.5194,0.5237,0.5231,0.5255,0.5233,0.5233,0.5244,0.525,0.5239,0.5238,0.5238,0.5243,0.5267,0.5268,0.5268,0.5269,0,0.5033,0.5066,0.5046,0.5077,0.5084,0.5064,0.509,0.5079,0.5102,0.5089,0.5088,0.5122,0.5118,0.515,0.515,0.5167,0.5132,0.5148,0.5128,0.5132,0.5096,0.5098,0.4976,0.4961,0.5087,0.5086,0.5085,0,0.4975,0.4958,0.4987,0.4985,0.4995,0.499,0.499,0.503,0.5029,0.5045,0.5031,0.5031,0.5032,0.5022,0.5047,0.5048,0.5063,0.502,0.5063,0.5053,0.5061,0.5061,0.5059,0.501,0.5008,0.5007,0.5006,0,0.4867,0.4884,0.4884,0.489,0.4891,0.4897,0.4906,0.4901,0.4944,0.494,0.4937,0.4938,0.494,0.4938,0.4944,0.4956,0.4987,0.4993,0.4985,0.4973,0.4961,0.4966,0.5102,0.4995,0.4996,0.4997,0.4998,0.4998,0.4783,0.477,0.4789,0.4788,0.48,0.4807,0.4798,0.482,0.4819,0.4824,0.4847,0.4839,0.4855,0.4867,0.4875,0.4869,0.489,0.4878,0.4875,0.4871,0.4865,0.4964,0.4871,0.4871,0.4871,0.4872,0.4872,0,0.4677,0.4692,0.4691,0.4702,0.4701,0.4734,0.4746,0.4742,0.4735,0.4748,0.4749,0.4745,0.4744,0.4769,0.4771,0.4761,0.4775,0.476,0.476,0.4762,0.4847,0.4853,0.4748,0.4748,0.4748,0.4748,0.4748,0.4748,0.4621,0.4601,0.4621,0.4607,0.4623,0.4617,0.462,0.4627,0.4638,0.4632,0.4632,0.4649,0.4666,0.467,0.467,0.4677,0.4675,0.4655,0.4666,0.4744,0.4756,0.4768,0.4774,0.4654,0.4654,0.4583,0.4582,0.4582]}]]